KABQKALM [1048]

Guest
Details From KABQ - Albuquerque International Sunport
To KALM - Alamogordo White Sands Rgnl
Flight Number 1048
Tags Real Commercial Decoded
Created
Modified
Stats Distance 153 nm / 283 km
Max Altitude 3,052 ft / 930 m
Waypoints 4
Social Downloads 2
Likes 0
Share VATSIM

Download

Looking for another format? Having issues loading an existing format? Contact us
Advertisement - Login to hide

Notes

Decoded

Route

KABQ HONER PAYNE KALM

ID Type Via Altitude Latitude Longitude Leg Dist Tot Dist Heading (true) Name
O KABQ APT - 0 ft / 0 m 35.04353˚ -106.62075˚ - 0 nm - -
HONER FIX - 3,052 ft / 930 m 32.71594˚ -106.14003˚ 141 nm 141 nm 170° / 170° -
PAYNE FIX - 1,681 ft / 512 m 32.77444˚ -106.06958˚ 5 nm 146 nm 45° / 45° -
O KALM APT - 0 ft / 0 m 32.84861˚ -105.98611˚ 6 nm 152 nm 43° / 43° -

Altitude Profile

Advertisement - Login to hide

KABQ

Details ICAO KABQ (ABQ)
Name Albuquerque International Sunport
Region United States
Timezone America/Denver (UTC-6.0)
Stats Elevation 5,355 ft / 1,632 m (AMSL)
Location 35.039647° -106.610582°
Runways 4
Magnetic Variation 8.491° E

METAR

KABQ 271652Z 29005KT 10SM CLR 24/M08 A3000 RMK AO2 SLP071 T02391083

Decode

TAF

TAF KABQ 271120Z 2712/2812 VRB05KT P6SM SCT250 FM271800 22008KT P6SM SKC FM272100 19014G23KT P6SM SKC FM280200 21010KT P6SM SKC

Decode

Departure Runways

ID Width Length Bearing (true) Bearing (mag) Surface Threshold Offset Overrun Length
03 150 ft / 46 m 10,002 ft / 3,049 m 44.66° 36.17° Concrete 0 ft / 0 m 400 ft / 122 m
08 150 ft / 46 m 13,762 ft / 4,195 m 90.43° 81.94° Concrete 1,000 ft / 305 m 550 ft / 168 m
12 150 ft / 46 m 5,998 ft / 1,828 m 128.97° 120.48° Concrete 0 ft / 0 m 0 ft / 0 m
17 150 ft / 46 m 10,023 ft / 3,055 m 183.36° 174.87° Asphalt 890 ft / 271 m 100 ft / 30 m
21 150 ft / 46 m 10,002 ft / 3,049 m 224.67° 216.18° Concrete 0 ft / 0 m 0 ft / 0 m
26 150 ft / 46 m 13,762 ft / 4,195 m 270.45° 261.96° Concrete 0 ft / 0 m 1,000 ft / 305 m
30 150 ft / 46 m 5,998 ft / 1,828 m 308.98° 300.49° Concrete 0 ft / 0 m 0 ft / 0 m
35 150 ft / 46 m 10,023 ft / 3,055 m 3.36° 354.87° Asphalt 0 ft / 0 m 200 ft / 61 m

KALM

Details ICAO KALM (ALM)
Name ALAMOGORDO WHITE SANDS RGNL
Region United States
Timezone America/Denver (UTC-6.0)
Stats Elevation 4,200 ft / 1,280 m (AMSL)
Location 32.841845° -105.988007°
Runways 2
Magnetic Variation 8.005° E

METAR

KALM 271715Z AUTO 26008KT 10SM CLR 30/M10 A2994 RMK AO2

Decode

TAF

Not found

Destination Runways

ID Width Length Bearing (true) Bearing (mag) Surface Threshold Offset Overrun Length
03 150 ft / 46 m 7,007 ft / 2,136 m 45.42° 37.41° Asphalt 0 ft / 0 m 0 ft / 0 m
16 200 ft / 61 m 3,573 ft / 1,089 m 173.20° 165.19° Dirt 0 ft / 0 m 0 ft / 0 m
21 150 ft / 46 m 7,007 ft / 2,136 m 225.43° 217.42° Asphalt 0 ft / 0 m 0 ft / 0 m
34 200 ft / 61 m 3,573 ft / 1,089 m 353.20° 345.19° Dirt 0 ft / 0 m 0 ft / 0 m

Popular Alternatives